This is the latest recevied weather packets stored in our database for station/object DK4DO-10. If no packets are shown the sender has not sent any weather packets the latest 10 day(s).
| Time | Temp. | Humidity | Pressure | Rain* | Wind** | Luminosity | Snow |
|---|---|---|---|---|---|---|---|
| 1777561970 | 21.11° C | 13% | 1020.5 hPa | - | - | - | - |
| 1777561370 | 21.67° C | 12% | 1020.6 hPa | - | - | - | - |
| 1777560770 | 21.11° C | 13% | 1020.7 hPa | - | - | - | - |
| 1777560170 | 21.11° C | 13% | 1020.7 hPa | - | - | - | - |
| 1777559570 | 21.11° C | 13% | 1020.8 hPa | - | - | - | - |
| 1777558969 | 21.11° C | 12% | 1021 hPa | - | - | - | - |
| 1777558369 | 21.11° C | 13% | 1021.1 hPa | - | - | - | - |
| 1777557769 | 21.11° C | 13% | 1021.2 hPa | - | - | - | - |
| 1777557169 | 20° C | 13% | 1021.4 hPa | - | - | - | - |
| 1777556568 | 19.44° C | 14% | 1021.5 hPa | - | - | - | - |
| 1777555968 | 20° C | 13% | 1021.5 hPa | - | - | - | - |
| 1777555368 | 19.44° C | 13% | 1021.6 hPa | - | - | - | - |
| 1777554768 | 18.89° C | 13% | 1021.8 hPa | - | - | - | - |
| 1777554167 | 18.89° C | 14% | 1021.9 hPa | - | - | - | - |
| 1777553567 | 18.33° C | 14% | 1022 hPa | - | - | - | - |
| 1777552967 | 17.78° C | 15% | 1022.1 hPa | - | - | - | - |
| 1777552367 | 17.78° C | 14% | 1022.2 hPa | - | - | - | - |
| 1777551767 | 17.78° C | 15% | 1022.3 hPa | - | - | - | - |
| 1777551175 | 17.22° C | 15% | 1022.4 hPa | - | - | - | - |
| 1777550574 | 17.22° C | 14% | 1022.4 hPa | - | - | - | - |
| 1777549974 | 17.22° C | 15% | 1022.5 hPa | - | - | - | - |
| 1777549374 | 17.22° C | 15% | 1022.4 hPa | - | - | - | - |
| 1777548774 | 17.22° C | 15% | 1022.6 hPa | - | - | - | - |
| 1777548173 | 16.67° C | 14% | 1022.9 hPa | - | - | - | - |
| 1777547573 | 16.67° C | 15% | 1022.9 hPa | - | - | - | - |
* Rain since midnight (hover to see other rain measurements)
** Current wind speed in m/s (hover to see current wind gust speed)